• In Hungary
  • List of Countries
  • For 7 days
  • Water Temperature
  • Satellite Maps
  • Weather Map
  • News
  • Weather Widgets
  • user-avatar
    Login

    Hourly Weather Wysoka

    Today, 19 November, Sunday

    Time Temperature Precipitation Wind Pressure Humidity
    00:00 +1°C° 0 mm 5 mps 743 mmHg 82%
    01:00 +1°C° 0 mm 5 mps 743 mmHg 85%
    02:00 +1°C° 0 mm 5 mps 743 mmHg 84%
    03:00 +1°C° 0 mm 5 mps 742 mmHg 84%
    04:00 +1°C° 0 mm 6 mps 742 mmHg 84%
    05:00 +1°C° 0 mm 6 mps 742 mmHg 83%
    06:00 +1°C° 0 mm 6 mps 742 mmHg 82%
    07:00 +1°C° 0 mm 6 mps 742 mmHg 82%
    08:00 +2°C° 0 mm 6 mps 742 mmHg 80%
    09:00 +2°C° 0 mm 6 mps 741 mmHg 79%
    10:00 +2°C° 0 mm 6 mps 741 mmHg 78%
    11:00 +2°C° 0.2 mm 6 mps 741 mmHg 77%
    12:00 +2°C° 0.2 mm 7 mps 741 mmHg 77%
    13:00 +2°C° 0.2 mm 7 mps 741 mmHg 77%
    14:00 +2°C° 0.3 mm 7 mps 740 mmHg 78%
    15:00 +2°C° 0.3 mm 6 mps 740 mmHg 79%
    16:00 +2°C° 0.3 mm 6 mps 740 mmHg 80%
    17:00 +2°C° 0 mm 5 mps 740 mmHg 81%
    18:00 +2°C° 0 mm 5 mps 740 mmHg 82%
    19:00 +1°C° 0 mm 4 mps 740 mmHg 83%
    20:00 +1°C° 0 mm 4 mps 740 mmHg 84%
    21:00 +1°C° 0 mm 4 mps 740 mmHg 85%
    22:00 0°C° 0 mm 4 mps 740 mmHg 86%
    23:00 +1°C° 0.1 mm 4 mps 741 mmHg 87%

    Tomorrow, 20 November, Monday

    Time Temperature Precipitation Wind Pressure Humidity
    00:00 +1°C° 0.1 mm 4 mps 741 mmHg 87%
    01:00 +1°C° 0.1 mm 4 mps 742 mmHg 88%
    02:00 +1°C° 0.2 mm 5 mps 742 mmHg 86%
    03:00 +2°C° 0.2 mm 5 mps 743 mmHg 85%
    04:00 +2°C° 0.2 mm 6 mps 743 mmHg 83%
    05:00 +2°C° 0.2 mm 6 mps 744 mmHg 83%
    06:00 +2°C° 0.2 mm 6 mps 745 mmHg 82%
    07:00 +2°C° 0.2 mm 6 mps 746 mmHg 82%
    08:00 +2°C° 0 mm 6 mps 746 mmHg 79%
    09:00 +2°C° 0 mm 5 mps 747 mmHg 77%
    10:00 +2°C° 0 mm 5 mps 748 mmHg 75%
    11:00 +2°C° 0 mm 5 mps 748 mmHg 71%
    12:00 +2°C° 0 mm 5 mps 749 mmHg 68%
    13:00 +2°C° 0 mm 5 mps 749 mmHg 64%
    14:00 +3°C° 0 mm 4 mps 749 mmHg 66%
    15:00 +2°C° 0 mm 3 mps 749 mmHg 68%
    16:00 +2°C° 0 mm 3 mps 749 mmHg 70%
    17:00 +1°C° 0 mm 3 mps 749 mmHg 74%
    18:00 +2°C° 0 mm 2 mps 749 mmHg 77%
    19:00 +1°C° 0 mm 2 mps 749 mmHg 81%
    20:00 +1°C° 0 mm 2 mps 749 mmHg 83%
    21:00 +1°C° 0 mm 2 mps 749 mmHg 85%
    22:00 +1°C° 0 mm 2 mps 749 mmHg 88%
    23:00 +1°C° 0 mm 2 mps 748 mmHg 89%

    Day after tomorrow, 21 November, Tuesday

    Time Temperature Precipitation Wind Pressure Humidity
    00:00 +2°C° 0 mm 1 mps 748 mmHg 91%
    01:00 +2°C° 0 mm 1 mps 748 mmHg 92%
    02:00 +2°C° 0 mm 1 mps 748 mmHg 93%
    03:00 +2°C° 0 mm 1 mps 747 mmHg 94%
    04:00 +1°C° 0 mm 1 mps 747 mmHg 95%
    05:00 +1°C° 0 mm 1 mps 747 mmHg 95%
    06:00 +1°C° 0 mm 1 mps 747 mmHg 95%
    07:00 +1°C° 0 mm 1 mps 747 mmHg 95%
    08:00 +2°C° 0 mm 1 mps 747 mmHg 93%
    09:00 +1°C° 0 mm 0 mps 748 mmHg 90%
    10:00 +2°C° 0 mm 0 mps 748 mmHg 87%
    11:00 +4°C° 0 mm 1 mps 748 mmHg 84%
    12:00 +4°C° 0 mm 1 mps 748 mmHg 81%
    13:00 +5°C° 0 mm 1 mps 749 mmHg 78%
    14:00 +4°C° 0 mm 1 mps 749 mmHg 82%
    15:00 +3°C° 0 mm 1 mps 749 mmHg 85%
    16:00 +2°C° 0 mm 1 mps 750 mmHg 89%
    17:00 +2°C° 0 mm 1 mps 750 mmHg 89%
    18:00 +2°C° 0 mm 1 mps 750 mmHg 90%
    19:00 +2°C° 0 mm 1 mps 750 mmHg 90%
    20:00 +1°C° 0 mm 1 mps 751 mmHg 90%
    21:00 +1°C° 0 mm 1 mps 751 mmHg 90%
    22:00 +1°C° 0 mm 1 mps 751 mmHg 90%
    23:00 +1°C° 0 mm 1 mps 751 mmHg 90%

    22 November, Wednesday

    Time Temperature Precipitation Wind Pressure Humidity
    00:00 +1°C° 0 mm 1 mps 751 mmHg 91%
    01:00 +1°C° 0 mm 1 mps 752 mmHg 91%
    02:00 +1°C° 0 mm 1 mps 751 mmHg 91%
    03:00 +1°C° 0 mm 1 mps 751 mmHg 91%
    04:00 +2°C° 0 mm 1 mps 751 mmHg 91%
    05:00 +1°C° 0.1 mm 2 mps 751 mmHg 91%
    06:00 0°C° 0.1 mm 3 mps 751 mmHg 91%
    07:00 0°C° 0.1 mm 3 mps 751 mmHg 90%
    08:00 0°C° 0.1 mm 4 mps 750 mmHg 89%
    09:00 0°C° 0.1 mm 4 mps 750 mmHg 87%
    10:00 +1°C° 0.1 mm 5 mps 750 mmHg 86%
    11:00 +1°C° 0.1 mm 5 mps 750 mmHg 86%
    12:00 +1°C° 0.1 mm 5 mps 749 mmHg 86%
    13:00 +2°C° 0.1 mm 5 mps 749 mmHg 86%
    14:00 +2°C° 0 mm 5 mps 748 mmHg 89%
    15:00 +2°C° 0 mm 5 mps 748 mmHg 91%
    16:00 +2°C° 0 mm 5 mps 748 mmHg 93%
    17:00 +3°C° 0.1 mm 5 mps 748 mmHg 93%
    18:00 +5°C° 0.1 mm 5 mps 748 mmHg 93%
    19:00 +4°C° 0.1 mm 6 mps 748 mmHg 93%
    20:00 +6°C° 0.4 mm 5 mps 748 mmHg 93%
    21:00 +6°C° 0.4 mm 5 mps 748 mmHg 93%
    22:00 +7°C° 0.4 mm 5 mps 748 mmHg 93%
    23:00 +6°C° 0 mm 5 mps 748 mmHg 93%

    23 November, Thursday

    Time Temperature Precipitation Wind Pressure Humidity
    00:00 +6°C° 0 mm 5 mps 749 mmHg 93%
    01:00 +6°C° 0 mm 4 mps 749 mmHg 94%
    02:00 +5°C° 0 mm 4 mps 749 mmHg 94%
    03:00 +5°C° 0 mm 4 mps 750 mmHg 95%
    04:00 +5°C° 0 mm 4 mps 750 mmHg 95%
    05:00 +5°C° 0 mm 4 mps 750 mmHg 95%
    06:00 +4°C° 0 mm 4 mps 750 mmHg 95%
    07:00 +4°C° 0 mm 4 mps 751 mmHg 95%
    08:00 +5°C° 0 mm 4 mps 751 mmHg 90%
    09:00 +5°C° 0 mm 4 mps 751 mmHg 86%
    10:00 +6°C° 0 mm 4 mps 751 mmHg 81%
    11:00 +6°C° 0 mm 5 mps 751 mmHg 76%
    12:00 +7°C° 0 mm 5 mps 751 mmHg 71%
    13:00 +8°C° 0 mm 5 mps 751 mmHg 66%
    14:00 +7°C° 0 mm 5 mps 751 mmHg 68%
    15:00 +7°C° 0 mm 5 mps 751 mmHg 70%
    16:00 +6°C° 0 mm 5 mps 751 mmHg 72%
    17:00 +6°C° 0 mm 5 mps 751 mmHg 72%
    18:00 +6°C° 0 mm 5 mps 751 mmHg 73%
    19:00 +6°C° 0 mm 5 mps 751 mmHg 73%
    20:00 +6°C° 0 mm 5 mps 751 mmHg 75%
    21:00 +6°C° 0 mm 5 mps 752 mmHg 76%
    22:00 +6°C° 0 mm 5 mps 752 mmHg 78%
    23:00 +6°C° 0 mm 4 mps 752 mmHg 81%

    24 November, Friday

    Time Temperature Precipitation Wind Pressure Humidity
    00:00 +6°C° 0 mm 4 mps 752 mmHg 83%
    01:00 +6°C° 0 mm 4 mps 753 mmHg 86%
    02:00 +6°C° 0 mm 4 mps 753 mmHg 88%
    03:00 +6°C° 0 mm 4 mps 753 mmHg 89%
    04:00 +5°C° 0 mm 4 mps 753 mmHg 91%
    05:00 +5°C° 0 mm 4 mps 753 mmHg 92%
    06:00 +5°C° 0 mm 4 mps 754 mmHg 93%
    07:00 +5°C° 0 mm 4 mps 754 mmHg 94%
    08:00 +6°C° 0 mm 4 mps 754 mmHg 92%
    09:00 +6°C° 0 mm 4 mps 755 mmHg 91%
    10:00 +7°C° 0 mm 4 mps 755 mmHg 89%
    11:00 +7°C° 0 mm 4 mps 755 mmHg 87%
    12:00 +8°C° 0 mm 4 mps 755 mmHg 85%
    13:00 +10°C° 0 mm 4 mps 755 mmHg 83%
    14:00 +8°C° 0 mm 4 mps 755 mmHg 86%
    15:00 +8°C° 0 mm 4 mps 755 mmHg 88%
    16:00 +7°C° 0 mm 4 mps 755 mmHg 91%
    17:00 +7°C° 0 mm 4 mps 755 mmHg 91%
    18:00 +6°C° 0 mm 4 mps 756 mmHg 91%
    19:00 +6°C° 0 mm 4 mps 756 mmHg 91%
    20:00 +6°C° 0 mm 4 mps 756 mmHg 91%
    21:00 +6°C° 0 mm 4 mps 756 mmHg 91%
    22:00 +6°C° 0 mm 4 mps 756 mmHg 90%
    23:00 +6°C° 0 mm 4 mps 756 mmHg 90%
    Show more